ISS (25544 NORAD) Tracking and Keplerian Element Data

This shows tracking and keplerian element data for the satellite.

Feedback or suggestion? Click here.




ElementValue
Catalog25544
NameISS
Epoch Orbit808
Epoch Day229.74435275
Epoch Year2018
RAAN71.9306
Inclination51.64
Eccentricity0.0005585
Argument of Perigee71.2325
Mean Anonmoly288.9433
Mean Motion15.53844432
Decay Rate0.00016717
L11 25544U 98067A 18229.74435275 .00016717 00000-0 10270-3 0 9028
L22 25544 51.6400 71.9306 0005585 71.2325 288.9433 15.53844432 8089

Live tracking and technical data element details for ISS (NORAD 25544). ISS can be tracked NOW for your location showing map with azimuth and elevation plus other details from your city location.

Track the satellite on the map from your city or location and see movement details for azimuth, elevation, latitude, longitude, range, height, and movement on the map or in text.







IsCatalogInMostPopularTable: catalog: 25544, numindb: 6019
Update: records affected: 1



GetName: 25544 ISS

Hit Count: updated at: Fri, 17 Aug 2018 13:20:01 GMT